PDA320 EYVI-UKBB

Flight info

Callsign PDA320
Flight time 2h 1m
Altitude 38000
Route UPASI DCT VABER DCT ETUBO/N0460F390 DCT TOLPA/K0848F390 DCT OKROT M70 SLV
Aircraft B737/M-SDE2E3FGHIRWXY/LB1

Departure

Time 2026-05-09 08:16
Airport Vilnius International Airport (EYVI)

Arrival

Time 2026-05-09 10:17
Airport Boryspil International Airport (UKBB)
Time Latitude Longitude Altitude Speed Heading
2026-05-09 07:36 54.64245 25.28278 614 ft 0 kts 360°
2026-05-09 07:58 54.64236 25.28278 630 ft 0 kts 360°
2026-05-09 07:58 54.64233 25.28278 628 ft 2 kts 360°
2026-05-09 07:58 54.64217 25.28278 622 ft 2 kts 360°
2026-05-09 07:59 54.64202 25.28278 626 ft 1 kts 360°
2026-05-09 07:59 54.64199 25.28278 625 ft 2 kts 360°
2026-05-09 07:59 54.64197 25.28278 624 ft 0 kts 360°
2026-05-09 07:59 54.64195 25.28278 629 ft 1 kts 359°
2026-05-09 08:00 54.64196 25.28278 629 ft 2 kts 359°
2026-05-09 08:00 54.64207 25.28278 627 ft 1 kts 359°
2026-05-09 08:00 54.64199 25.28278 625 ft 0 kts 359°
2026-05-09 08:01 54.64192 25.28278 629 ft 0 kts 359°
2026-05-09 08:02 54.64191 25.28278 629 ft 0 kts 359°
2026-05-09 08:05 54.64192 25.28277 614 ft 0 kts 351°
2026-05-09 08:06 54.64193 25.28268 614 ft 1 kts 287°
2026-05-09 08:06 54.64192 25.28263 629 ft 0 kts 264°
2026-05-09 08:06 54.64186 25.28255 629 ft 2 kts 225°
2026-05-09 08:06 54.64180 25.28239 626 ft 1 kts 239°
2026-05-09 08:07 54.64179 25.28235 625 ft 0 kts 244°
2026-05-09 08:07 54.64169 25.28198 624 ft 7 kts 243°
2026-05-09 08:07 54.64100 25.28168 625 ft 14 kts 167°
2026-05-09 08:07 54.64002 25.28206 614 ft 14 kts 167°
2026-05-09 08:08 54.63909 25.28241 621 ft 13 kts 167°
2026-05-09 08:08 54.63825 25.28274 621 ft 12 kts 166°
2026-05-09 08:08 54.63749 25.28305 618 ft 11 kts 167°
2026-05-09 08:08 54.63678 25.28332 623 ft 11 kts 168°
2026-05-09 08:09 54.63599 25.28362 621 ft 13 kts 168°
2026-05-09 08:09 54.63499 25.28325 617 ft 16 kts 202°
2026-05-09 08:09 54.63388 25.28249 614 ft 17 kts 201°
2026-05-09 08:09 54.63284 25.28175 614 ft 16 kts 202°
2026-05-09 08:10 54.63185 25.28107 614 ft 15 kts 201°
2026-05-09 08:10 54.63097 25.28044 614 ft 13 kts 202°
2026-05-09 08:10 54.63014 25.27988 623 ft 13 kts 201°
2026-05-09 08:10 54.62928 25.27930 621 ft 16 kts 202°
2026-05-09 08:11 54.62801 25.27840 614 ft 22 kts 202°
2026-05-09 08:11 54.62643 25.27731 616 ft 27 kts 202°
2026-05-09 08:11 54.62534 25.27657 614 ft 8 kts 193°
2026-05-09 08:11 54.62488 25.27693 618 ft 8 kts 142°
2026-05-09 08:12 54.62483 25.27699 624 ft 0 kts 142°
2026-05-09 08:13 54.62481 25.27701 617 ft 1 kts 142°
2026-05-09 08:13 54.62460 25.27730 617 ft 7 kts 142°
2026-05-09 08:14 54.62415 25.27828 614 ft 14 kts 94°
2026-05-09 08:14 54.62467 25.27919 615 ft 0 kts 21°
2026-05-09 08:15 54.62581 25.27999 611 ft 53 kts 22°
2026-05-09 08:15 54.63147 25.28392 612 ft 120 kts 22°
2026-05-09 08:15 54.64077 25.29027 821 ft 155 kts 21°
2026-05-09 08:16 54.65017 25.29678 1891 ft 141 kts 24°
2026-05-09 08:16 54.65948 25.30323 2577 ft 153 kts 27°
2026-05-09 08:16 54.67055 25.31106 2882 ft 189 kts 27°
2026-05-09 08:16 54.68368 25.32026 3101 ft 216 kts 26°
2026-05-09 08:17 54.69817 25.33032 3536 ft 230 kts 26°
2026-05-09 08:17 54.71331 25.34073 4155 ft 237 kts 25°
2026-05-09 08:17 54.72884 25.35143 4829 ft 244 kts 25°
2026-05-09 08:17 54.74477 25.36244 5678 ft 245 kts 24°
2026-05-09 08:18 54.76025 25.37314 6647 ft 242 kts 23°
2026-05-09 08:18 54.77626 25.38390 7309 ft 251 kts 17°
2026-05-09 08:18 54.79386 25.38526 7997 ft 260 kts 348°
2026-05-09 08:18 54.81021 25.37074 8508 ft 278 kts 316°
2026-05-09 08:19 54.82103 25.34221 8993 ft 290 kts 293°
2026-05-09 08:19 54.82860 25.30970 9822 ft 290 kts 290°
2026-05-09 08:19 54.83512 25.27612 10369 ft 300 kts 278°
2026-05-09 08:19 54.83427 25.23933 10571 ft 317 kts 251°
2026-05-09 08:20 54.82328 25.20535 10735 ft 331 kts 223°
2026-05-09 08:20 54.80373 25.18341 10896 ft 344 kts 200°
2026-05-09 08:20 54.78101 25.16882 11044 ft 361 kts 198°
2026-05-09 08:20 54.75697 25.15339 11268 ft 374 kts 199°
2026-05-09 08:21 54.73244 25.13692 11716 ft 380 kts 199°
2026-05-09 08:21 54.70833 25.11809 12291 ft 384 kts 210°
2026-05-09 08:21 54.68803 25.08784 12829 ft 389 kts 224°
2026-05-09 08:21 54.66915 25.05421 13339 ft 393 kts 225°
2026-05-09 08:22 54.64989 25.02026 13851 ft 395 kts 224°
2026-05-09 08:22 54.63045 24.98640 14300 ft 398 kts 224°
2026-05-09 08:22 54.61088 24.95261 14757 ft 399 kts 224°
2026-05-09 08:22 54.59113 24.91871 15193 ft 401 kts 224°
2026-05-09 08:23 54.57121 24.88463 15566 ft 404 kts 224°
2026-05-09 08:23 54.55121 24.85046 15970 ft 406 kts 224°
2026-05-09 08:23 54.53104 24.81605 16354 ft 408 kts 224°
2026-05-09 08:23 54.51087 24.78167 16726 ft 409 kts 225°
2026-05-09 08:24 54.49325 24.74316 17008 ft 412 kts 242°
2026-05-09 08:24 54.48240 24.69750 17392 ft 412 kts 250°
2026-05-09 08:24 54.47246 24.65181 17713 ft 414 kts 250°
2026-05-09 08:24 54.46217 24.60525 18030 ft 416 kts 249°
2026-05-09 08:25 54.45172 24.55868 18325 ft 418 kts 249°
2026-05-09 08:25 54.44116 24.51225 18582 ft 419 kts 249°
2026-05-09 08:25 54.43042 24.46535 18859 ft 420 kts 249°
2026-05-09 08:25 54.41970 24.41870 19135 ft 421 kts 249°
2026-05-09 08:26 54.40891 24.37187 19391 ft 422 kts 249°
2026-05-09 08:26 54.39806 24.32485 19614 ft 424 kts 249°
2026-05-09 08:26 54.38722 24.27797 19858 ft 424 kts 249°
2026-05-09 08:26 54.37656 24.23065 20109 ft 424 kts 250°
2026-05-09 08:27 54.36632 24.18383 20350 ft 424 kts 250°
2026-05-09 08:27 54.35607 24.13645 20560 ft 425 kts 251°
2026-05-09 08:27 54.34572 24.08872 20757 ft 426 kts 250°
2026-05-09 08:27 54.33535 24.04107 20974 ft 427 kts 250°
2026-05-09 08:28 54.32492 23.99343 21139 ft 428 kts 250°
2026-05-09 08:28 54.31439 23.94563 21379 ft 428 kts 251°
2026-05-09 08:28 54.30386 23.89796 21549 ft 429 kts 250°
2026-05-09 08:28 54.29326 23.85008 21693 ft 430 kts 250°
2026-05-09 08:29 54.28262 23.80216 21910 ft 431 kts 250°
2026-05-09 08:29 54.27197 23.75428 22084 ft 432 kts 250°
2026-05-09 08:29 54.26125 23.70616 22244 ft 433 kts 250°
2026-05-09 08:29 54.25050 23.65809 22418 ft 433 kts 250°
2026-05-09 08:30 54.23975 23.61010 22573 ft 433 kts 250°
2026-05-09 08:30 54.22894 23.56186 22692 ft 435 kts 250°
2026-05-09 08:30 54.21807 23.51352 22814 ft 436 kts 250°
2026-05-09 08:30 54.20507 23.46676 22910 ft 439 kts 237°
2026-05-09 08:31 54.18419 23.42841 23051 ft 444 kts 220°
2026-05-09 08:31 54.15785 23.40109 23193 ft 448 kts 205°
2026-05-09 08:31 54.12811 23.38692 23309 ft 452 kts 192°
2026-05-09 08:31 54.09704 23.37862 23435 ft 452 kts 190°
2026-05-09 08:32 54.06583 23.37096 23517 ft 453 kts 190°
2026-05-09 08:32 54.03449 23.36337 23614 ft 454 kts 191°
2026-05-09 08:32 53.97198 23.34776 23810 ft 454 kts 191°
2026-05-09 08:33 53.94061 23.33966 23900 ft 454 kts 191°
2026-05-09 08:33 53.90939 23.33148 23992 ft 455 kts 191°
2026-05-09 08:33 53.87819 23.32325 24065 ft 455 kts 192°
2026-05-09 08:33 53.84681 23.31494 24139 ft 455 kts 192°
2026-05-09 08:34 53.81555 23.30668 24220 ft 455 kts 192°
2026-05-09 08:34 53.78421 23.29841 24301 ft 455 kts 192°
2026-05-09 08:34 53.75332 23.29028 24369 ft 455 kts 192°
2026-05-09 08:34 53.72196 23.28204 24435 ft 455 kts 192°
2026-05-09 08:35 53.69068 23.27383 24503 ft 455 kts 192°
2026-05-09 08:35 53.65931 23.26563 24580 ft 455 kts 192°
2026-05-09 08:35 53.62802 23.25745 24649 ft 455 kts 192°
2026-05-09 08:35 53.59669 23.24928 24717 ft 455 kts 192°
2026-05-09 08:36 53.56537 23.24112 24770 ft 455 kts 192°
2026-05-09 08:36 53.53405 23.23298 24833 ft 455 kts 192°
2026-05-09 08:36 53.50270 23.22483 24883 ft 455 kts 192°
2026-05-09 08:36 53.47141 23.21672 24945 ft 455 kts 192°
2026-05-09 08:37 53.44009 23.20860 25004 ft 455 kts 192°
2026-05-09 08:37 53.40911 23.20060 25039 ft 456 kts 192°
2026-05-09 08:37 53.37785 23.19253 25089 ft 456 kts 192°
2026-05-09 08:37 53.34641 23.18443 25146 ft 455 kts 192°
2026-05-09 08:38 53.31505 23.17636 25185 ft 456 kts 192°
2026-05-09 08:38 53.28378 23.16832 25215 ft 456 kts 192°
2026-05-09 08:38 53.25237 23.16026 25258 ft 456 kts 192°
2026-05-09 08:38 53.22099 23.15222 25306 ft 456 kts 192°
2026-05-09 08:39 53.18960 23.14419 25343 ft 456 kts 192°
2026-05-09 08:39 53.15809 23.13614 25383 ft 456 kts 192°
2026-05-09 08:39 53.12716 23.12825 25419 ft 456 kts 192°
2026-05-09 08:39 53.09573 23.12024 25459 ft 456 kts 193°
2026-05-09 08:40 53.06438 23.11227 25502 ft 456 kts 193°
2026-05-09 08:40 53.03313 23.10433 25543 ft 455 kts 193°
2026-05-09 08:40 53.00176 23.09638 25575 ft 455 kts 193°
2026-05-09 08:40 52.97042 23.08844 25606 ft 455 kts 193°
2026-05-09 08:41 52.93910 23.08052 25645 ft 455 kts 193°
2026-05-09 08:41 52.90780 23.07262 25680 ft 455 kts 193°
2026-05-09 08:41 52.87652 23.06473 25717 ft 454 kts 193°
2026-05-09 08:41 52.84534 23.05688 25736 ft 454 kts 193°
2026-05-09 08:42 52.81403 23.04901 25751 ft 455 kts 193°
2026-05-09 08:42 52.78276 23.04115 25784 ft 454 kts 193°
2026-05-09 08:42 52.75146 23.03331 25811 ft 454 kts 193°
2026-05-09 08:42 52.72023 23.02549 25833 ft 454 kts 193°
2026-05-09 08:43 52.68903 23.01769 25870 ft 454 kts 193°
2026-05-09 08:43 52.65783 23.00990 25908 ft 453 kts 193°
2026-05-09 08:43 52.62668 23.00214 25971 ft 452 kts 193°
2026-05-09 08:43 52.59557 22.99440 26011 ft 452 kts 193°
2026-05-09 08:44 52.56449 22.98666 26033 ft 452 kts 193°
2026-05-09 08:44 52.53346 22.97896 26041 ft 452 kts 193°
2026-05-09 08:44 52.50216 22.97234 26048 ft 455 kts 187°
2026-05-09 08:44 52.47084 22.97323 26073 ft 460 kts 179°
2026-05-09 08:45 52.43867 22.98156 26113 ft 464 kts 171°
2026-05-09 08:45 52.40806 22.99728 26131 ft 469 kts 164°
2026-05-09 08:45 52.37711 23.01617 26147 ft 469 kts 164°
2026-05-09 08:45 52.34699 23.03487 26164 ft 469 kts 164°
2026-05-09 08:46 52.31643 23.05376 26185 ft 469 kts 164°
2026-05-09 08:46 52.28591 23.07243 26207 ft 469 kts 164°
2026-05-09 08:46 52.25529 23.09094 26226 ft 468 kts 165°
2026-05-09 08:46 52.22465 23.10930 26254 ft 468 kts 165°
2026-05-09 08:47 52.19414 23.12747 26265 ft 468 kts 165°
2026-05-09 08:47 52.16351 23.14565 26283 ft 467 kts 165°
2026-05-09 08:47 52.13288 23.16378 26303 ft 467 kts 165°
2026-05-09 08:47 52.10245 23.18178 26322 ft 467 kts 165°
2026-05-09 08:48 52.07188 23.19984 26343 ft 466 kts 165°
2026-05-09 08:48 52.04138 23.21784 26353 ft 466 kts 165°
2026-05-09 08:48 52.01087 23.23582 26369 ft 466 kts 165°
2026-05-09 08:48 51.98038 23.25376 26382 ft 466 kts 165°
2026-05-09 08:49 51.95038 23.27140 26398 ft 465 kts 165°
2026-05-09 08:49 51.91992 23.28928 26404 ft 465 kts 165°
2026-05-09 08:49 51.88949 23.30712 26416 ft 465 kts 165°
2026-05-09 08:49 51.85902 23.32495 26425 ft 465 kts 165°
2026-05-09 08:50 51.82864 23.34271 26432 ft 465 kts 166°
2026-05-09 08:50 51.79818 23.36048 26444 ft 465 kts 166°
2026-05-09 08:50 51.76782 23.37817 26446 ft 464 kts 166°
2026-05-09 08:50 51.73744 23.39586 26451 ft 464 kts 166°
2026-05-09 08:51 51.70703 23.41353 26466 ft 464 kts 166°
2026-05-09 08:51 51.67666 23.43116 26472 ft 464 kts 166°
2026-05-09 08:51 51.65615 23.44304 26477 ft 464 kts 166°
2026-05-09 08:51 51.61594 23.46632 26487 ft 464 kts 166°
2026-05-09 08:52 51.58558 23.48386 26496 ft 463 kts 166°
2026-05-09 08:52 51.56549 23.49546 26500 ft 463 kts 166°
2026-05-09 08:52 51.53513 23.51296 26509 ft 463 kts 166°
2026-05-09 08:52 51.50475 23.53045 26519 ft 463 kts 166°
2026-05-09 08:53 51.47443 23.54788 26526 ft 463 kts 166°
2026-05-09 08:53 51.44409 23.56530 26527 ft 463 kts 166°
2026-05-09 08:53 51.41376 23.58270 26542 ft 463 kts 166°
2026-05-09 08:53 51.38351 23.60002 26556 ft 463 kts 166°
2026-05-09 08:54 51.35315 23.61788 26552 ft 465 kts 162°
2026-05-09 08:54 51.32547 23.64575 26547 ft 480 kts 143°
2026-05-09 08:54 51.30333 23.68640 26555 ft 491 kts 128°
2026-05-09 08:54 51.28846 23.73584 26560 ft 502 kts 110°
2026-05-09 08:55 51.28003 23.79011 26597 ft 503 kts 106°
2026-05-09 08:55 51.27253 23.84456 26600 ft 504 kts 105°
2026-05-09 08:55 51.26517 23.89947 26602 ft 504 kts 105°
2026-05-09 08:55 51.25773 23.95426 26617 ft 504 kts 106°
2026-05-09 08:56 51.25012 24.00880 26622 ft 504 kts 106°
2026-05-09 08:56 51.24233 24.06331 26629 ft 503 kts 107°
2026-05-09 08:56 51.23447 24.11717 26635 ft 503 kts 107°
2026-05-09 08:56 51.22645 24.17145 26645 ft 503 kts 107°
2026-05-09 08:57 51.21834 24.22589 26656 ft 503 kts 107°
2026-05-09 08:57 51.21026 24.27991 26672 ft 503 kts 107°
2026-05-09 08:57 51.20211 24.33429 26676 ft 503 kts 107°
2026-05-09 08:57 51.19396 24.38851 26685 ft 503 kts 107°
2026-05-09 08:58 51.18578 24.44279 26692 ft 503 kts 107°
2026-05-09 08:58 51.17761 24.49692 26702 ft 503 kts 107°
2026-05-09 08:58 51.16940 24.55106 26708 ft 503 kts 107°
2026-05-09 08:58 51.16118 24.60513 26722 ft 503 kts 107°
2026-05-09 08:59 51.15288 24.65954 26735 ft 503 kts 107°
2026-05-09 08:59 51.14462 24.71353 26747 ft 502 kts 107°
2026-05-09 08:59 51.13633 24.76751 26755 ft 502 kts 107°
2026-05-09 08:59 51.12802 24.82144 26767 ft 502 kts 107°
2026-05-09 09:00 51.11969 24.87535 26776 ft 502 kts 107°
2026-05-09 09:00 51.11130 24.92943 26790 ft 502 kts 107°
2026-05-09 09:00 51.10291 24.98331 26800 ft 502 kts 108°
2026-05-09 09:00 51.09448 25.03726 26808 ft 502 kts 108°
2026-05-09 09:01 51.08603 25.09120 26816 ft 501 kts 108°
2026-05-09 09:01 51.07770 25.14421 26834 ft 501 kts 108°
2026-05-09 09:01 51.06909 25.19876 26847 ft 501 kts 108°
2026-05-09 09:01 51.06071 25.25176 26850 ft 501 kts 108°
2026-05-09 09:02 51.05219 25.30538 26859 ft 501 kts 108°
2026-05-09 09:02 51.04353 25.35979 26873 ft 501 kts 108°
2026-05-09 09:02 51.03506 25.41280 26874 ft 501 kts 108°
2026-05-09 09:02 51.02647 25.46637 26892 ft 501 kts 108°
2026-05-09 09:03 51.01784 25.52004 26905 ft 500 kts 108°
2026-05-09 09:03 51.00922 25.57346 26914 ft 500 kts 108°
2026-05-09 09:03 51.00056 25.62699 26936 ft 500 kts 108°
2026-05-09 09:03 50.99186 25.68056 26943 ft 500 kts 108°
2026-05-09 09:04 50.98317 25.73394 26952 ft 500 kts 108°
2026-05-09 09:04 50.97440 25.78756 26964 ft 500 kts 108°
2026-05-09 09:04 50.96567 25.84085 26979 ft 500 kts 109°
2026-05-09 09:04 50.95688 25.89428 26992 ft 500 kts 109°
2026-05-09 09:05 50.94808 25.94765 27001 ft 500 kts 109°
2026-05-09 09:05 50.93926 26.00093 27005 ft 500 kts 109°
2026-05-09 09:05 50.93053 26.05354 27024 ft 500 kts 109°
2026-05-09 09:05 50.92153 26.10759 27029 ft 500 kts 109°
2026-05-09 09:06 50.91277 26.16006 27042 ft 499 kts 109°
2026-05-09 09:06 50.90373 26.21398 27053 ft 499 kts 109°
2026-05-09 09:06 50.89492 26.26643 27065 ft 499 kts 109°
2026-05-09 09:06 50.88596 26.31958 27078 ft 499 kts 109°
2026-05-09 09:07 50.87699 26.37264 27088 ft 499 kts 109°
2026-05-09 09:07 50.86800 26.42560 27100 ft 499 kts 109°
2026-05-09 09:07 50.85896 26.47878 27112 ft 499 kts 109°
2026-05-09 09:07 50.84990 26.53183 27129 ft 499 kts 109°
2026-05-09 09:08 50.84084 26.58475 27139 ft 499 kts 109°
2026-05-09 09:08 50.83174 26.63778 27143 ft 499 kts 109°
2026-05-09 09:08 50.82260 26.69085 27156 ft 499 kts 109°
2026-05-09 09:08 50.81349 26.74361 27167 ft 498 kts 109°
2026-05-09 09:09 50.80432 26.79654 27178 ft 498 kts 109°
2026-05-09 09:09 50.79515 26.84931 27185 ft 498 kts 109°
2026-05-09 09:09 50.78596 26.90207 27202 ft 498 kts 109°
2026-05-09 09:09 50.77674 26.95479 27216 ft 498 kts 109°
2026-05-09 09:10 50.76748 27.00762 27222 ft 498 kts 109°
2026-05-09 09:10 50.75823 27.06025 27231 ft 498 kts 109°
2026-05-09 09:10 50.74891 27.11309 27241 ft 498 kts 109°
2026-05-09 09:10 50.73963 27.16557 27250 ft 498 kts 109°
2026-05-09 09:11 50.73027 27.21838 27256 ft 498 kts 109°
2026-05-09 09:11 50.72092 27.27098 27265 ft 498 kts 109°
2026-05-09 09:11 50.71156 27.32349 27276 ft 497 kts 109°
2026-05-09 09:11 50.70229 27.37527 27288 ft 497 kts 110°
2026-05-09 09:12 50.69282 27.42772 27299 ft 497 kts 110°
2026-05-09 09:12 50.68331 27.48014 27308 ft 497 kts 110°
2026-05-09 09:12 50.67376 27.53257 27314 ft 497 kts 110°
2026-05-09 09:12 50.66423 27.58483 27318 ft 497 kts 110°
2026-05-09 09:13 50.65463 27.63734 27334 ft 497 kts 110°
2026-05-09 09:13 50.64502 27.68975 27344 ft 497 kts 110°
2026-05-09 09:13 50.63542 27.74204 27353 ft 497 kts 110°
2026-05-09 09:13 50.62579 27.79430 27365 ft 496 kts 110°
2026-05-09 09:14 50.61614 27.84655 27380 ft 496 kts 110°
2026-05-09 09:14 50.60649 27.89868 27386 ft 496 kts 110°
2026-05-09 09:14 50.59680 27.95085 27392 ft 496 kts 110°
2026-05-09 09:14 50.58711 28.00287 27405 ft 496 kts 110°
2026-05-09 09:15 50.57737 28.05497 27419 ft 496 kts 110°
2026-05-09 09:15 50.56762 28.10703 27442 ft 496 kts 110°
2026-05-09 09:15 50.55784 28.15907 27448 ft 496 kts 110°
2026-05-09 09:15 50.54803 28.21115 27456 ft 496 kts 110°
2026-05-09 09:16 50.53834 28.26248 27474 ft 496 kts 110°
2026-05-09 09:16 50.51864 28.36633 27490 ft 496 kts 110°
2026-05-09 09:16 50.50875 28.41824 27500 ft 496 kts 110°
2026-05-09 09:17 50.49886 28.47009 27510 ft 496 kts 110°
2026-05-09 09:17 50.48891 28.52206 27519 ft 495 kts 110°
2026-05-09 09:17 50.47897 28.57387 27530 ft 495 kts 110°
2026-05-09 09:17 50.46899 28.62572 27540 ft 495 kts 110°
2026-05-09 09:18 50.45896 28.67755 27551 ft 497 kts 111°
2026-05-09 09:18 50.44694 28.72816 27534 ft 495 kts 118°
2026-05-09 09:18 50.43244 28.77695 27547 ft 493 kts 120°
2026-05-09 09:18 50.41733 28.82533 27536 ft 492 kts 120°
2026-05-09 09:19 50.40234 28.87282 27542 ft 492 kts 120°
2026-05-09 09:19 50.38722 28.92106 27539 ft 492 kts 120°
2026-05-09 09:19 50.37231 28.96914 27533 ft 491 kts 120°
2026-05-09 09:19 50.35745 29.01750 27538 ft 491 kts 119°
2026-05-09 09:20 50.34271 29.06568 27534 ft 491 kts 119°
2026-05-09 09:20 50.32800 29.11379 27545 ft 491 kts 119°
2026-05-09 09:20 50.31323 29.16205 27548 ft 491 kts 119°
2026-05-09 09:20 50.29839 29.21040 27544 ft 492 kts 119°
2026-05-09 09:21 50.28358 29.25854 27543 ft 492 kts 119°
2026-05-09 09:21 50.26869 29.30681 27548 ft 492 kts 119°
2026-05-09 09:21 50.25381 29.35499 27542 ft 492 kts 119°
2026-05-09 09:21 50.23891 29.40312 27540 ft 492 kts 119°
2026-05-09 09:22 50.22402 29.45113 27582 ft 489 kts 119°
2026-05-09 09:22 50.20957 29.49829 27758 ft 489 kts 116°
2026-05-09 09:22 50.20113 29.54988 28169 ft 491 kts 97°
2026-05-09 09:22 50.20181 29.60262 28992 ft 483 kts 83°
2026-05-09 09:23 50.21064 29.65270 29787 ft 474 kts 67°
2026-05-09 09:23 50.22439 29.69878 30569 ft 463 kts 64°
2026-05-09 09:23 50.23856 29.74339 31281 ft 452 kts 63°
2026-05-09 09:23 50.25241 29.78660 32001 ft 440 kts 64°
2026-05-09 09:24 50.26578 29.82888 32742 ft 428 kts 64°
2026-05-09 09:24 50.27862 29.87021 33503 ft 415 kts 64°
2026-05-09 09:24 50.29095 29.91043 34127 ft 407 kts 65°
2026-05-09 09:24 50.30302 29.95013 34516 ft 401 kts 65°
2026-05-09 09:25 50.31482 29.98913 34897 ft 397 kts 65°
2026-05-09 09:25 50.32677 30.02873 34859 ft 406 kts 65°
2026-05-09 09:25 50.35132 30.11022 34903 ft 421 kts 65°
2026-05-09 09:26 50.36394 30.15215 34706 ft 429 kts 65°
2026-05-09 09:26 50.37667 30.19452 34101 ft 434 kts 65°
2026-05-09 09:26 50.38957 30.23802 33091 ft 446 kts 69°
2026-05-09 09:26 50.39710 30.28551 31868 ft 459 kts 88°
2026-05-09 09:27 50.39688 30.31936 31038 ft 466 kts 100°
2026-05-09 09:27 50.38883 30.36821 29774 ft 471 kts 113°
2026-05-09 09:27 50.37760 30.41589 28292 ft 475 kts 114°
2026-05-09 09:27 50.36588 30.46444 26829 ft 478 kts 114°
2026-05-09 09:28 50.35438 30.51328 25681 ft 475 kts 112°
2026-05-09 09:28 50.34349 30.56123 25137 ft 458 kts 112°
2026-05-09 09:28 50.33327 30.60682 24951 ft 433 kts 112°
2026-05-09 09:28 50.32337 30.65024 24789 ft 410 kts 116°
2026-05-09 09:29 50.30906 30.68710 24492 ft 386 kts 136°
2026-05-09 09:29 50.28924 30.71357 24128 ft 367 kts 152°
2026-05-09 09:29 50.26718 30.73101 23924 ft 345 kts 165°
2026-05-09 09:29 50.24461 30.74014 23733 ft 327 kts 173°
2026-05-09 09:30 50.22258 30.74661 23358 ft 319 kts 174°
2026-05-09 09:30 50.20112 30.75246 23080 ft 307 kts 178°
2026-05-09 09:30 50.18025 30.75256 22748 ft 295 kts 187°
2026-05-09 09:30 50.15991 30.75051 22278 ft 292 kts 187°
2026-05-09 09:31 50.13965 30.74865 21781 ft 291 kts 186°
2026-05-09 09:31 50.11947 30.74694 21317 ft 289 kts 186°
2026-05-09 09:31 50.09949 30.74543 20870 ft 287 kts 186°
2026-05-09 09:32 50.05984 30.74260 19993 ft 283 kts 186°
2026-05-09 09:32 50.04028 30.74122 19663 ft 277 kts 186°
2026-05-09 09:32 50.02170 30.73994 19621 ft 257 kts 186°
2026-05-09 09:32 50.00458 30.73876 19402 ft 244 kts 186°
2026-05-09 09:33 49.98773 30.73754 18987 ft 242 kts 186°
2026-05-09 09:33 49.97094 30.73633 18515 ft 241 kts 186°
2026-05-09 09:33 49.95420 30.73513 18031 ft 240 kts 186°
2026-05-09 09:33 49.93760 30.73396 17560 ft 237 kts 186°
2026-05-09 09:34 49.92114 30.73278 17049 ft 236 kts 186°
2026-05-09 09:34 49.90476 30.73162 16572 ft 235 kts 186°
2026-05-09 09:34 49.88847 30.73283 16082 ft 238 kts 166°
2026-05-09 09:36 49.89733 30.86203 13167 ft 238 kts
2026-05-09 09:36 49.91379 30.86349 12729 ft 236 kts 358°
2026-05-09 09:36 49.93012 30.86427 12301 ft 234 kts 358°
2026-05-09 09:37 49.94631 30.86499 11878 ft 232 kts 358°
2026-05-09 09:37 49.96231 30.86590 11560 ft 225 kts 359°
2026-05-09 09:37 49.97743 30.86691 11385 ft 213 kts 359°
2026-05-09 09:37 49.99201 30.86793 11056 ft 207 kts 359°
2026-05-09 09:38 50.00647 30.86889 10569 ft 209 kts 359°
2026-05-09 09:38 50.02059 30.86986 10190 ft 208 kts 359°
2026-05-09 09:38 50.03507 30.87087 9763 ft 206 kts 359°
2026-05-09 09:38 50.04946 30.87188 9342 ft 205 kts 359°
2026-05-09 09:39 50.06364 30.87298 8977 ft 204 kts
2026-05-09 09:39 50.07769 30.87575 8605 ft 203 kts
2026-05-09 09:39 50.09136 30.87935 8237 ft 201 kts
2026-05-09 09:39 50.10515 30.88293 7883 ft 200 kts
2026-05-09 09:40 50.11877 30.88650 7517 ft 198 kts
2026-05-09 09:40 50.13235 30.88980 7112 ft 196 kts
2026-05-09 09:40 50.14585 30.89126 6750 ft 194 kts 359°
2026-05-09 09:40 50.15929 30.89211 6371 ft 192 kts 359°
2026-05-09 09:41 50.17260 30.89296 6006 ft 190 kts 359°
2026-05-09 09:41 50.18571 30.89385 5639 ft 188 kts 359°
2026-05-09 09:41 50.19877 30.89475 5260 ft 188 kts 359°
2026-05-09 09:41 50.21172 30.89566 4938 ft 186 kts 359°
2026-05-09 09:42 50.22457 30.89633 4634 ft 182 kts 360°
2026-05-09 09:42 50.23687 30.89727 4423 ft 175 kts 359°
2026-05-09 09:42 50.24901 30.89826 4015 ft 178 kts
2026-05-09 09:42 50.26167 30.89914 3539 ft 186 kts
2026-05-09 09:43 50.27496 30.90013 3091 ft 191 kts
2026-05-09 09:43 50.28779 30.90108 2977 ft 180 kts
2026-05-09 09:43 50.30049 30.90178 2917 ft 179 kts 357°
2026-05-09 09:43 50.31322 30.89956 3005 ft 195 kts 355°
2026-05-09 09:44 50.32718 30.90147 3392 ft 209 kts
2026-05-09 09:44 50.34175 30.90279 3598 ft 216 kts 359°
2026-05-09 09:44 50.35656 30.90230 3954 ft 217 kts 358°
2026-05-09 09:44 50.37212 30.90336 4293 ft 225 kts
2026-05-09 09:45 50.38867 30.90648 4066 ft 251 kts
2026-05-09 09:45 50.40586 30.91043 3951 ft 246 kts
2026-05-09 09:45 50.42274 30.91373 3930 ft 244 kts
2026-05-09 09:45 50.43960 30.91637 3924 ft 242 kts
2026-05-09 09:46 50.45646 30.91860 3912 ft 244 kts
2026-05-09 09:46 50.47331 30.92062 3915 ft 244 kts
2026-05-09 09:46 50.49045 30.92265 3929 ft 249 kts
2026-05-09 09:46 50.50752 30.92532 3929 ft 246 kts 11°
2026-05-09 09:47 50.52230 30.93823 3914 ft 246 kts 45°
2026-05-09 09:47 50.53063 30.96164 3933 ft 251 kts 76°
2026-05-09 09:47 50.53026 30.98899 3931 ft 254 kts 107°
2026-05-09 09:47 50.52088 31.01192 3925 ft 251 kts 141°
2026-05-09 09:48 50.50617 31.02633 3929 ft 249 kts 155°
2026-05-09 09:48 50.49046 31.03793 3913 ft 250 kts 157°
2026-05-09 09:48 50.47466 31.04931 3916 ft 249 kts 157°
2026-05-09 09:48 50.45894 31.06086 3911 ft 249 kts 156°
2026-05-09 09:49 50.44333 31.07252 3908 ft 248 kts 156°
2026-05-09 09:49 50.42788 31.08411 3909 ft 247 kts 156°
2026-05-09 09:49 50.41281 31.09664 3905 ft 249 kts 144°
2026-05-09 09:49 50.40247 31.11818 3925 ft 251 kts 111°
2026-05-09 09:50 50.39587 31.14331 3894 ft 250 kts 129°
2026-05-09 09:50 50.38202 31.15913 3940 ft 243 kts 158°
2026-05-09 09:50 50.36642 31.16976 3929 ft 247 kts 159°
2026-05-09 09:50 50.35064 31.18064 3919 ft 248 kts 158°
2026-05-09 09:51 50.33488 31.19182 3915 ft 249 kts 157°
2026-05-09 09:51 50.31938 31.20307 3928 ft 248 kts 157°
2026-05-09 09:51 50.30378 31.21453 3912 ft 248 kts 157°
2026-05-09 09:51 50.28816 31.22609 3923 ft 248 kts 156°
2026-05-09 09:52 50.27265 31.23770 3905 ft 247 kts 156°
2026-05-09 09:52 50.25722 31.24933 3923 ft 245 kts 156°
2026-05-09 09:52 50.24183 31.26100 3907 ft 245 kts 156°
2026-05-09 09:52 50.22654 31.27266 3926 ft 245 kts 156°
2026-05-09 09:53 50.21123 31.28423 3910 ft 245 kts 156°
2026-05-09 09:53 50.19589 31.29583 3923 ft 245 kts 156°
2026-05-09 09:53 50.18053 31.30746 3903 ft 245 kts 156°
2026-05-09 09:53 50.16526 31.31903 3928 ft 244 kts 156°
2026-05-09 09:54 50.14998 31.33057 3920 ft 245 kts 156°
2026-05-09 09:54 50.13471 31.34209 3923 ft 243 kts 157°
2026-05-09 09:54 50.11848 31.34878 3898 ft 241 kts 176°
2026-05-09 09:54 50.10173 31.34905 3904 ft 243 kts 186°
2026-05-09 09:55 50.08507 31.34496 3839 ft 242 kts 196°
2026-05-09 09:55 50.06914 31.33656 3835 ft 242 kts 204°
2026-05-09 09:55 50.05408 31.32484 3826 ft 241 kts 212°
2026-05-09 09:55 50.04062 31.31000 3829 ft 235 kts 222°
2026-05-09 09:56 50.02996 31.29104 3766 ft 229 kts 236°
2026-05-09 09:56 50.02175 31.27105 3665 ft 216 kts 239°
2026-05-09 09:56 50.01427 31.25165 3562 ft 203 kts 239°
2026-05-09 09:56 50.00726 31.23327 3380 ft 194 kts 240°
2026-05-09 09:57 50.00043 31.21538 3143 ft 191 kts 240°
2026-05-09 09:57 49.99381 31.19809 3023 ft 180 kts 240°
2026-05-09 09:57 49.98741 31.18141 2989 ft 180 kts 240°
2026-05-09 09:57 49.98103 31.16479 2977 ft 178 kts 240°
2026-05-09 09:58 49.97474 31.14841 2976 ft 176 kts 240°
2026-05-09 09:58 49.96853 31.13226 2976 ft 173 kts 240°
2026-05-09 09:58 49.96233 31.11615 3002 ft 175 kts 238°
2026-05-09 09:58 49.95596 31.09966 3077 ft 182 kts 240°
2026-05-09 09:59 49.94927 31.08235 2954 ft 188 kts 239°
2026-05-09 09:59 49.94269 31.06545 2992 ft 184 kts 239°
2026-05-09 09:59 49.93615 31.04851 2903 ft 178 kts 240°
2026-05-09 09:59 49.93012 31.03286 2958 ft 162 kts 240°
2026-05-09 10:00 49.92427 31.01774 2978 ft 168 kts 240°
2026-05-09 10:00 49.91787 31.00119 3041 ft 187 kts 240°
2026-05-09 10:00 49.91134 30.98433 2974 ft 178 kts 239°
2026-05-09 10:00 49.90506 30.96801 2972 ft 177 kts 239°
2026-05-09 10:01 49.89877 30.95209 2998 ft 172 kts 239°
2026-05-09 10:01 49.89263 30.93616 3007 ft 172 kts 240°
2026-05-09 10:01 49.88633 30.91983 2985 ft 180 kts 240°
2026-05-09 10:01 49.87987 30.90324 2959 ft 178 kts 241°
2026-05-09 10:02 49.87353 30.88691 2979 ft 178 kts 240°
2026-05-09 10:02 49.86718 30.87062 2985 ft 176 kts 240°
2026-05-09 10:02 49.86080 30.85428 2998 ft 179 kts 240°
2026-05-09 10:02 49.85435 30.83782 2981 ft 175 kts 240°
2026-05-09 10:03 49.84802 30.82160 2967 ft 179 kts 240°
2026-05-09 10:03 49.84150 30.80503 2929 ft 181 kts 240°
2026-05-09 10:03 49.83515 30.78892 2942 ft 170 kts 240°
2026-05-09 10:03 49.82903 30.77324 3024 ft 175 kts 240°
2026-05-09 10:04 49.82357 30.75610 2976 ft 180 kts 258°
2026-05-09 10:04 49.82422 30.73700 2979 ft 178 kts 291°
2026-05-09 10:04 49.83159 30.72267 2999 ft 170 kts 330°
2026-05-09 10:04 49.84292 30.72012 3019 ft 175 kts 12°
2026-05-09 10:05 49.85404 30.72934 2977 ft 181 kts 38°
2026-05-09 10:05 49.86388 30.74164 2989 ft 185 kts 38°
2026-05-09 10:05 49.87359 30.75411 2962 ft 176 kts 38°
2026-05-09 10:05 49.88255 30.76700 2975 ft 180 kts 51°
2026-05-09 10:06 49.88540 30.78535 2995 ft 186 kts 104°
2026-05-09 10:06 49.88003 30.80395 2960 ft 193 kts 115°
2026-05-09 10:06 49.87490 30.82261 2949 ft 184 kts 112°
2026-05-09 10:06 49.86987 30.84059 2971 ft 186 kts 101°
2026-05-09 10:07 49.87260 30.85921 2975 ft 179 kts 46°
2026-05-09 10:07 49.88356 30.86679 2973 ft 180 kts 354°
2026-05-09 10:07 49.89598 30.86585 2931 ft 180 kts 11°
2026-05-09 10:07 49.90794 30.87075 2973 ft 184 kts
2026-05-09 10:08 49.92076 30.87297 2986 ft 184 kts
2026-05-09 10:08 49.93334 30.87437 2967 ft 176 kts
2026-05-09 10:08 49.94576 30.87557 3052 ft 184 kts
2026-05-09 10:08 49.95867 30.87750 3000 ft 186 kts
2026-05-09 10:09 49.97140 30.87958 2979 ft 177 kts
2026-05-09 10:09 49.98377 30.88055 2939 ft 178 kts
2026-05-09 10:09 49.99606 30.88162 2997 ft 177 kts
2026-05-09 10:09 50.00874 30.88294 2929 ft 183 kts
2026-05-09 10:10 50.02105 30.88374 2943 ft 174 kts
2026-05-09 10:10 50.03333 30.88448 3044 ft 184 kts
2026-05-09 10:10 50.04630 30.88577 3036 ft 186 kts
2026-05-09 10:10 50.05922 30.88630 2936 ft 183 kts 358°
2026-05-09 10:11 50.07153 30.88705 2983 ft 175 kts
2026-05-09 10:11 50.08393 30.88825 2984 ft 180 kts
2026-05-09 10:11 50.09686 30.88947 3028 ft 192 kts 360°
2026-05-09 10:11 50.11022 30.88997 2909 ft 185 kts 359°
2026-05-09 10:12 50.12252 30.89067 2953 ft 174 kts 359°
2026-05-09 10:12 50.13475 30.89145 2983 ft 178 kts
2026-05-09 10:12 50.14732 30.89227 3005 ft 181 kts
2026-05-09 10:12 50.16004 30.89315 2985 ft 184 kts 360°
2026-05-09 10:13 50.17266 30.89406 2992 ft 179 kts
2026-05-09 10:13 50.18499 30.89486 2984 ft 177 kts
2026-05-09 10:13 50.19745 30.89570 2914 ft 183 kts
2026-05-09 10:13 50.21023 30.89641 2672 ft 184 kts
2026-05-09 10:14 50.21779 30.89723 2557 ft 181 kts
2026-05-09 10:14 50.22798 30.89814 2383 ft 179 kts 360°
2026-05-09 10:14 50.24055 30.89861 2112 ft 180 kts
2026-05-09 10:14 50.25250 30.89941 1885 ft 165 kts
2026-05-09 10:15 50.26378 30.90001 1689 ft 161 kts
2026-05-09 10:15 50.27492 30.90085 1446 ft 158 kts
2026-05-09 10:15 50.28545 30.90157 1247 ft 150 kts
2026-05-09 10:15 50.29575 30.90223 1039 ft 147 kts
2026-05-09 10:16 50.30565 30.90282 906 ft 142 kts 360°
2026-05-09 10:16 50.31583 30.90333 671 ft 146 kts
2026-05-09 10:16 50.32569 30.90396 453 ft 141 kts
2026-05-09 10:16 50.33476 30.90456 423 ft 115 kts
2026-05-09 10:17 50.34158 30.90506 414 ft 81 kts
2026-05-09 10:17 50.34636 30.90541 418 ft 62 kts
2026-05-09 10:17 50.34992 30.90564 419 ft 34 kts 356°
2026-05-09 10:17 50.35171 30.90495 409 ft 25 kts 334°
2026-05-09 10:18 50.35284 30.90404 412 ft 0 kts 333°
2026-05-09 10:19 50.35284 30.90403 412 ft 1 kts 333°
2026-05-09 10:20 50.35299 30.90391 414 ft 4 kts 333°
2026-05-09 10:20 50.35319 30.90375 412 ft 6 kts 332°
2026-05-09 10:20 50.35366 30.90337 411 ft 9 kts 333°
2026-05-09 10:20 50.35430 30.90277 414 ft 12 kts 316°
2026-05-09 10:21 50.35459 30.90145 414 ft 14 kts 272°
2026-05-09 10:21 50.35402 30.90034 407 ft 14 kts 189°
2026-05-09 10:21 50.35306 30.90026 408 ft 14 kts 182°
2026-05-09 10:21 50.35213 30.90019 412 ft 13 kts 183°
2026-05-09 10:22 50.35159 30.90011 414 ft 3 kts 203°
2026-05-09 10:22 50.35152 30.89982 407 ft 3 kts 262°
2026-05-09 10:22 50.35151 30.89948 414 ft 3 kts 268°
2026-05-09 10:22 50.35151 30.89907 409 ft 4 kts 274°
2026-05-09 10:23 50.35152 30.89887 408 ft 0 kts 273°